sat.trackr.live / text

‹ back to catalog

ONEWEB-0672

NORAD 55831 · 2023-029AM

PAYLOAD ACTIVE UNKNOWN

§ Identity

Operator
Country
UK
Launch date
2023-03-09
Launch site
AFETR
Launch vehicle
Mass (kg)
RCS (m²)

Purposes: comms

External: N2YO · Heavens-Above · Gunter

§ Orbital elements

Epoch: 2026-09-19T22:34:45.711840Z

Period
109.03 min
Inclination
87.9144°
Eccentricity
0.0001947
Mean motion
13.20770670 rev/d
Perigee alt
1,180.3 km
Apogee alt
1,183.2 km
Semi-major
7,559.9 km
B*
2.5422e-4
RAAN
255.5316°
Arg perigee
95.0459°
Mean anomaly
265.0897°
Rev number
17,365

§ Raw data

ONEWEB-06721 55831U 23029AM  26262.94080685  .00000116  00000+0  25422-3 0  99912 55831  87.9144 255.5316 0001947  95.0459 265.0897 13.20770670173659

JSON: /api/v1/satellites/55831 · /tle

For live sub-satellite position, see the globe view (requires WebGL).

§ Visibility from observer

Set your observer location to see the next 7 days of passes ≥ 10°. The values pass through the URL so the page stays shareable.

No JS? Fill the form by hand. The geolocation button needs JavaScript.